Location: Atherton
(17.2661°S, 145.4859°E)
Time: 22:02:01
(UTC+10:00)

Transit 2A - Pass Details

Date: 27 June 2025
Orbit: 598 x 948 km, 66.7° (Epoch: 19 July)

Event Time Altitude Azimuth Distance (km) Brightness Sun altitude
Rises 19:08:15 0° 188° (S) 3,364 9.2 -17.2°
Reaches altitude 10° 19:11:05 10° 177° (S) 2,364 8.3 -17.9°
Enters shadow 19:14:02 25° 150° (SSE) 1,515 7.1 -18.5°
Maximum altitude 19:15:48 30° 116° (ESE) 1,299 - -18.9°
Drops below altitude 10° 19:20:05 10° 55° (NE) 2,143 - -19.9°
Sets 19:22:31 0° 44° (NE) 2,999 - -20.4°
